Location: ?????????
(41.1556°N, 22.5775°E)
Time: 00:26:19
(UTC+00:00)

Daily predictions for brighter satellites

Satellite Brightness Start Highest point End
(mag) Time Altitude Azimuth Time Altitude Azimuth Time Altitude Azimuth
Cosmos 2360 Rocket 4.5 01:14:06 19° NE 01:14:27 19° NE 01:18:29 10° E
CZ-4C R/B 4.3 01:24:49 26° N 01:27:39 33° NE 01:34:55 10° ESE
ALOS 3.7 02:05:36 10° NNE 02:08:19 33° NE 02:08:19 33° NE
Atlas Centaur 2 4.3 02:11:37 19° S 02:12:30 20° SSE 02:16:55 10° ESE
Cosmos 2366 rocket 4.1 02:06:48 10° N 02:13:11 75° E 02:19:32 10° SSE
Cosmos 2237 4.4 02:14:03 69° ENE 02:14:03 69° ENE 02:19:38 10° SSE
CZ-4B R/B 4.3 02:09:53 10° NNE 02:13:36 47° NNE 02:13:36 47° NNE
Cosmos 1833 4.4 02:22:09 61° SSE 02:22:51 68° ESE 02:28:26 10° NNE
NOSS 2-2 (C) 4.4 02:23:51 79° W 02:24:02 80° WSW 02:31:58 10° SSE
USA 305 4.0 02:29:34 41° ENE 02:29:34 41° ENE 02:32:24 10° NE
Cosmos 1484 Rocket 4.0 02:27:01 10° NNE 02:30:04 40° ENE 02:30:04 40° ENE
Cosmos 1538 Rocket 3.9 02:30:52 85° ESE 02:30:53 85° ESE 02:36:18 10° NNE
SL-4 R/B 2.6 02:37:43 57° ENE 02:37:43 57° ENE 02:41:16 10° ESE
Cosmos 304 Rocket 3.7 02:38:49 84° ENE 02:38:51 84° ENE 02:43:40 10° SSE
SL-16 R/B 4.0 02:43:00 18° S 02:43:00 18° S 02:44:24 10° S
CZ-2C R/B 3.8 02:36:45 10° N 02:38:51 25° N 02:38:51 25° N
Cosmos 2181 Rocket 4.1 02:42:47 53° WNW 02:42:47 53° WNW 02:48:24 10° N
Nadezhda 3 Rocket 4.5 02:39:13 10° S 02:45:12 59° E 02:51:15 10° NNE
Meteor 1-16 Rocket 4.1 02:44:13 10° N 02:49:40 81° E 02:54:58 10° SSE
Cosmos 2322 Rocket 2.7 02:51:37 40° SSW 02:51:37 40° SSW 02:55:41 10° S
Cosmos 1900 4.2 02:50:54 54° SSW 02:52:01 86° ESE 02:56:55 10° NNE
Cosmos 2219 Rocket 3.2 02:49:22 10° NNW 02:54:48 45° ENE 03:00:12 10° SE
ARIANE 5 R/B 4.3 02:50:44 10° N 02:52:07 17° NNW 02:52:07 17° NNW
Lacrosse 5 2.2 02:56:07 47° SW 02:56:07 47° SW 03:00:33 10° SSE
H-2A ROCKET BODY 4.4 02:56:07 23° SW 02:56:07 23° SW 03:00:38 10° S
Cosmos 1626 3.4 02:59:13 29° N 02:59:13 29° N 03:01:09 10° N
Cosmos 1821 Rocket 4.1 02:51:25 10° N 02:57:37 76° E 03:03:42 10° SSE
USA 307 2.8 02:58:32 66° NNW 02:58:32 66° NNW 03:02:34 10° NE
Cosmos 2360 Rocket 2.1 02:56:00 28° NW 02:59:01 70° WSW 03:04:38 10° SSE
USA 306 3.0 02:59:42 59° NNW 02:59:42 59° NNW 03:03:46 10° NE
SL-08 R/B 4.5 02:53:09 10° N 02:59:40 87° W 03:06:06 10° S
Spot 4 Rocket 4.3 02:55:12 10° N 02:59:49 46° WNW 02:59:49 46° WNW
Cosmos 332 Rocket 3.8 03:03:56 53° W 03:04:14 54° WSW 03:08:53 10° S
Lacrosse 5 rocket 3.9 03:03:52 11° NNW 03:04:15 11° N 03:05:18 10° N
Cosmos 2218 Rocket 4.4 03:02:42 10° NNW 03:08:34 40° W 03:14:23 10° SSW
Cosmos 923 Rocket 4.0 03:04:41 10° SSW 03:09:52 82° ESE 03:15:05 10° NNE
FENGYUN 3A 4.1 03:04:58 10° N 03:09:59 39° WNW 03:10:26 38° W
Cosmos 1025 Rocket 3.4 03:05:59 10° S 03:10:14 65° E 03:14:30 10° NNE
Cosmos 2333 Rocket 2.4 03:05:01 10° NNW 03:10:47 75° ENE 03:16:33 10° SSE
OAO 2 Rocket 4.4 03:10:18 27° SW 03:11:11 28° SSW 03:15:27 10° SE
Cosmos 1680 Rocket 3.9 03:06:11 10° S 03:11:20 63° ESE 03:16:33 10° NNE
Envisat 4.3 03:06:45 10° NNE 03:11:35 42° E 03:16:23 10° S
Cosmos 220 Rocket 3.9 03:13:03 47° WNW 03:13:48 55° WSW 03:17:54 10° S
CZ-4C R/B 3.0 03:10:03 13° NW 03:16:51 73° WSW 03:25:24 10° SSE
ERBS 2.5 03:16:02 43° SSW 03:16:52 63° SE 03:20:06 10° NE
SL-24 R/B - RUBIN 2 3.7 03:17:07 42° W 03:17:55 48° WSW 03:22:03 10° S
USA 308 3.3 03:20:44 39° WNW 03:21:36 46° NNW 03:25:42 10° NE
Meteor 2-5 Rocket 4.2 03:21:32 10° S 03:26:58 62° E 03:32:30 10° NNE
Cosmos 1953 2.8 03:27:39 27° NW 03:29:09 37° W 03:32:50 10° SSW
BREEZE M DEB (TANK) 4.0 03:29:27 27° WSW 03:29:45 27° WSW 03:32:21 10° S
USA 234 3.2 03:23:35 10° NE 03:30:09 90° SE 03:36:43 10° SW
H-2A R/B 3.0 03:27:00 10° NNE 03:30:45 66° E 03:34:26 10° S
Cosmos 1441 Rocket 3.0 03:27:49 10° SSW 03:31:31 63° W 03:35:13 10° N
Cosmos 2322 3.6 03:26:40 10° NNW 03:32:23 85° WSW 03:38:03 10° SSE
Meteor 1-31 Rocket 3.3 03:29:29 10° NNE 03:33:14 58° E 03:36:57 10° S
COSMO-SKYMED 1 3.1 03:29:12 10° SSE 03:33:28 62° ENE 03:37:46 10° N
ISS -3.0 03:32:54 33° NW 03:33:30 36° NNW 03:36:40 10° NE
Cosmos 1300 2.6 03:31:47 10° N 03:35:36 88° WSW 03:39:23 10° S
Cosmos 1455 Rocket 3.2 03:31:45 10° NNW 03:36:04 50° W 03:40:19 10° SSW
CZ-4B R/B 4.1 03:32:36 10° NNE 03:36:18 66° E 03:40:06 10° S
COSMOS 2487 2.9 03:38:47 30° W 03:39:33 35° WNW 03:42:39 10° N
Cosmos 2112 Rocket 3.9 03:34:58 10° SSW 03:40:11 84° WNW 03:45:30 10° NNE
Cosmos 1371 Rocket 4.5 03:38:06 10° NNW 03:43:15 63° ENE 03:48:23 10° SSE
Meteor 2-10 Rocket 3.9 03:38:27 10° N 03:43:27 65° ENE 03:48:25 10° SSE
SL-14 R/B 3.7 03:41:35 10° SSW 03:45:15 37° WNW 03:48:54 10° N
BREEZE-M DEB (TANK) 2.3 03:45:32 21° NW 03:46:46 37° N 03:48:52 10° E
ALOS 3.8 03:44:14 10° NNW 03:46:47 16° WNW 03:46:47 16° WNW
Cosmos 1975 Rocket 3.9 03:43:56 10° SW 03:47:49 29° WNW 03:51:45 10° NNW
GEOS 3 Rocket 4.4 03:44:55 10° NE 03:49:56 53° ESE 03:54:53 10° SSW
Cosmos 1544 Rocket 3.5 03:46:19 10° NNW 03:50:40 63° W 03:54:56 10° S
Cosmos 1238 4.1 03:48:16 10° SSW 03:51:19 57° W 03:54:19 10° N
Meteor 1-24 Rocket 3.7 03:46:29 10° S 03:51:49 84° E 03:57:20 10° N
Cosmos 1624 Rocket 4.4 03:47:09 10° NNW 03:52:29 70° ENE 03:57:45 10° SSE
Cosmos 1339 Rocket 4.5 03:47:14 10° S 03:53:25 88° W 03:59:35 10° N
Meteor 1-4 Rocket 2.4 03:51:12 10° NNW 03:54:40 67° W 03:58:10 10° S
SKYMED 3 4.5 03:53:07 10° S 03:57:27 71° W 04:01:47 10° NNW
Atlas Centaur 2 3.8 03:55:31 10° SW 04:01:03 28° S 04:05:38 10° ESE
CBERS 1 LM4 rocket 4.4 03:57:16 10° N 04:02:08 60° WNW 04:06:49 10° SSW
Cosmos 1484 Rocket 4.5 04:02:44 10° NW 04:04:43 14° WNW 04:05:22 13° WNW
CZ-4B R/B 4.4 04:03:12 10° ESE 04:05:02 15° ENE 04:06:53 10° NNE
USA 276 3.8 04:03:15 13° WNW 04:05:04 20° NNW 04:07:30 10° NE
USA 305 4.3 04:05:37 13° WNW 04:08:28 24° NNW 04:11:54 10° NNE
CZ-2C R/B 2.7 04:06:27 10° S 04:11:56 67° WSW 04:17:32 10° NNW
COSMOS 2428 2.9 04:09:49 10° NNW 04:15:21 52° WSW 04:20:51 10° S
SL-4 R/B 3.4 04:13:18 11° W 04:16:25 21° SW 04:19:29 10° S
CZ-2C R/B 4.0 04:11:51 10° NNE 04:16:51 52° E 04:21:36 10° S
Cosmos 2297 Rocket 2.7 04:11:27 10° SSW 04:17:02 68° ESE 04:22:39 10° NNE
NOSS 3-3 (A) 4.1 04:13:11 10° WSW 04:18:41 49° NW 04:24:58 10° NNE
NOSS 3-3 (C) 4.1 04:13:15 10° WSW 04:18:45 50° NW 04:25:02 10° NNE
Cosmos 2219 4.2 04:15:09 10° S 04:20:39 53° ESE 04:26:08 10° NNE
SKYMED 2 4.1 04:17:32 10° SSW 04:21:34 37° W 04:25:37 10° NNW
Landsat 5 3.9 04:18:04 10° SSW 04:21:44 37° W 04:25:33 10° NNW
Cosmos 44 Rocket 3.5 04:16:58 10° NW 04:21:46 53° WSW 04:26:24 10° SSE
BREEZE-M R/B 1.7 04:20:34 10° WSW 04:22:58 89° SSE 04:25:50 10° ENE
Cosmos 292 Rocket 3.9 04:18:23 10° NNW 04:23:07 55° WSW 04:27:48 10° S
Cosmos 1605 Rocket 4.1 04:18:05 10° NNW 04:24:26 69° W 04:30:42 10° S
H-2A R/B 2.3 04:21:16 10° SSE 04:25:23 70° ENE 04:29:29 10° N
Cosmos 1939 Rocket 4.2 04:24:31 10° NNE 04:28:33 48° E 04:32:32 10° S
Cosmos 1420 Rocket 4.0 04:23:54 10° NNW 04:29:06 81° WSW 04:34:18 10° SSE
CZ-4C R/B 3.7 04:26:23 10° SSW 04:29:41 35° W 04:33:00 10° NNW
